Regional Weather Roundup
Issued by NWS Goodland, KS

Home | Current Version | Previous Version | Text Only | Print | Product List | Glossary On
Versions: 1 2 3 4 5 6 7 8 9 10 11 12 13 14 15 16 17 18 19 20 21 22 23 24 25 26 27 28 29 30 31 32 33 34 35 36 37 38 39 40 41 42 43 44 45 46 47 48 49 50
000
ASUS43 KGLD 200508
RWRGLD

GOODLAND FORECAST AREA HOURLY WEATHER ROUNDUP
NATIONAL WEATHER SERVICE GOODLAND KS
1100 PM MDT THU OCT 19 2017

...OFFICIAL OBSERVATIONS...

CITY           SKY/WX    TMP DP  RH WIND       PRES   REMARKS
GOODLAND KS    PTCLDY    57  44  62 S16       29.90F
HILL CITY KS   FAIR      63  46  54 S12       29.95F
IMPERIAL NEB   PTCLDY    60  42  51 S10       29.88F
MCCOOK NEB     MOCLDY    64  43  46 S13       29.90F
AKRON CO       PTCLDY    53  40  61 S12       29.88F
BURLINGTON CO  PTCLDY    55  46  71 S15       29.91F
LIMON CO       PTCLDY    42  38  85 SE6       29.93F
$$

...UNOFFICIAL OBSERVATIONS...

CITY           SKY/WX    TMP DP  RH WIND       PRES   REMARKS
COLBY KS       PTCLDY    61  46  59 S16G22    29.93F
NORTON KS      CLEAR     61  39  44 S13G20    29.93S
SHARON SPRINGS   N/A     59  47  63 SE12G20     N/A
TRENTON NEB      N/A     60  32  34 S9          N/A
YUMA CO        FAIR      52  43  71 S8        29.87F
$$




USA.gov is the U.S. government's official web portal to all federal, state and local government web resources and services.